ALOUETTE 1 (S-27) 1 00424U 62049A 12034.99258956 +.00000054 +00000-0 +51518-4 0 08772 2 00424 080.4630 044.7550 0024444 087.8732 272.5212 13.68805485463272 IUE 1 10637U 78012A 12032.37653024 -.00000274 00000-0 10000-3 0 7641 2 10637 043.8084 002.6573 1489322 171.8329 190.9347 01.00057291 77056 IRAS 1 13777U 83004A 12034.95522499 -.00000134 +00000-0 -61194-4 0 07853 2 13777 099.0283 232.7730 0020015 067.9418 292.3870 14.00136295152184 EXOS D (AKEBONO) 1 19822U 89016A 12034.71587696 +.00026038 +47389-6 +75726-3 0 00891 2 19822 075.0909 157.3454 2536588 288.9859 045.4692 10.34051075692743 INTERCOSMOS 24 1 20261U 89080A 12034.86055928 +.00000241 +00000-0 +72747-4 0 06769 2 20261 082.5921 198.3473 1212313 290.9937 056.5762 12.53841975020072 COBE 1 20322U 89089A 12034.84938605 -.00000080 00000-0 -22576-4 0 6821 2 20322 099.0043 043.5200 0008476 331.7795 028.2906 14.04475893138150 HST 1 20580U 90037B 12035.06600358 .00001502 00000-0 98906-4 0 9379 2 20580 028.4712 301.0061 0003481 070.7555 289.3392 15.02159347994541 ROSAT (Decayed 2011-10-23) 1 20638U 90049A 11295.95477602 +.11801250 +12635-4 +14055-3 0 05914 2 20638 052.9649 145.0450 0003875 266.7349 093.8309 16.49742883194609 CRRES 1 20712U 90065A 12034.33555996 -.00000076 00000-0 66143-3 0 3987 2 20712 018.1324 030.6761 7130351 090.9754 343.9346 02.43399341180469 SARA 1 21578U 91050E 12034.92390011 +.00000533 +00000-0 +14555-3 0 03597 2 21578 098.3541 006.7324 0003408 098.9729 261.1846 14.51156375083856 UARS (Decayed 2011-09-24) 1 21701U 91063B 11267.10904230 .15227068 11945-4 11522-3 0 6442 2 21701 056.9313 262.1789 0003645 318.1436 041.9334 16.52554649109189 SAMPEX 1 22012U 92038A 12034.93579076 +.00031474 +00000-0 +40295-3 0 07636 2 22012 081.6338 279.0461 0030112 104.9073 255.5517 15.58463004082789 ORBVIEW 1 (MICROLAB) 1 23547U 95017C 12034.76327493 .00000498 00000-0 12699-3 0 7892 2 23547 069.9776 097.0855 0013019 315.2527 044.7556 14.56277607892555 XTE 1 23757U 95074A 12034.94899158 +.00004444 +00000-0 +11924-3 0 05725 2 23757 022.9903 004.4647 0007761 186.5528 173.4858 15.33178937893151 FAST 1 24285U 96049A 12034.81608916 .00004082 00000-0 35018-3 0 3929 2 24285 082.9705 293.7612 1974230 133.0696 245.3576 11.31663481626963 TRACE 1 25280U 98020A 12034.93105237 +.00001997 +00000-0 +16078-3 0 01393 2 25280 097.6071 240.4551 0024627 239.4937 120.3856 15.00870713755169 SAFIR 2 1 25399U 98043F 12034.92397182 +.00000239 +00000-0 +12159-3 0 01327 2 25399 098.3201 027.5509 0000894 229.9618 130.1476 14.24066077705224 SWAS 1 25560U 98071A 12034.78082256 .00001181 00000-0 13772-3 0 7982 2 25560 069.9014 131.2955 0011660 249.6643 110.3257 14.88011853713338 ASTRID 2 1 25568U 98072B 12034.93175230 +.00000050 +00000-0 +38698-4 0 09108 2 25568 082.9479 351.2203 0023334 267.0475 092.8008 13.72108356658540 ORSTED 1 25635U 99008B 12034.82773882 .00000588 00000-0 15232-3 0 4253 2 25635 096.4547 013.4158 0143128 012.7632 347.7117 14.46243902682708 SUNSAT 1 25636U 99008C 12034.96177659 +.00000220 +00000-0 +64281-4 0 01270 2 25636 096.4611 003.8672 0149062 056.5126 305.0210 14.43698610681855 WIRE (Decayed 2011-05-10) 1 25646U 99011A 11130.21694826 .32787649 27057-5 24659-3 0 6096 2 25646 097.2373 069.0355 0009444 231.5077 128.8522 16.52763843683505 ABRIXAS 1 25721U 99022A 12034.64469302 .00004816 00000-0 20535-3 0 3275 2 25721 048.4610 123.7823 0018002 281.3441 078.5483 15.24458912706854 TERRIERS 1 25735U 99026A 12034.88389278 +.00002454 +00000-0 +96527-4 0 05096 2 25735 097.1042 240.3060 0005325 249.6265 110.4406 15.26532093705410 FUSE 1 1 25791U 99035A 12034.76765601 +.00000340 +00000-0 +47941-4 0 01817 2 25791 024.9849 192.5671 0010443 296.7848 063.1611 14.41983325665329 CXO 1 25867U 99040B 12036.70833333 -.00000570 00000-0 00000+0 0 6980 2 25867 071.3037 014.6261 8739544 277.8126 359.9667 00.37803937 8658 CLEMENTINE 1 25978U 99064B 12034.86475396 +.00001944 +00000-0 +22285-3 0 05296 2 25978 098.1083 143.3974 0009443 231.8821 128.1543 14.87106799658722 XMM 1 25989U 99066A 12032.25000000 +.00000113 +00000-0 +10000-3 0 01449 2 25989 062.7451 081.7084 6656184 098.3436 350.7298 00.50134059011044 TERRA 1 25994U 99068A 12035.51353515 .00000154 00000-0 44134-4 0 6920 2 25994 098.2068 111.4930 0000941 086.5512 273.5802 14.57090123645299 ACRIMSAT 1 26033U 99070B 12034.74557275 +.00000175 +00000-0 +44610-4 0 04640 2 26033 097.8466 249.7527 0029544 052.8386 307.5520 14.60853943645918 IMAGE 1 26113U 00017A 12033.26827468 .00000122 00000-0 10000-3 0 1848 2 26113 093.1558 223.4847 7649906 174.7085 205.6980 01.68633521 73015 DELTA 2 R/B(2) 1 26115U 00017C 12026.80549586 .00000661 00000-0 18564-1 0 831 2 26115 093.1350 223.4777 7650510 177.0268 194.6570 01.68200126 72710 CLUSTER II-FM6 1 26410U 00041A 12035.83333333 +.00002471 +00000-0 +00000-0 0 07585 2 26410 140.6833 277.3217 8552591 095.3924 353.9350 00.44225791008837 CLUSTER II-FM7 1 26411U 00041B 12035.83333333 +.00002472 +00000-0 +00000-0 0 07587 2 26411 140.6865 277.3034 8552769 095.3802 353.9433 00.44225872008913 CLUSTER II-FM5 1 26463U 00045A 12035.83333333 +.00002558 +00000-0 +00000-0 0 07482 2 26463 142.9475 272.8423 8454873 091.4187 353.9233 00.44226870009417 CLUSTER II-FM8 1 26464U 00045B 12035.83333333 .00003436 00000-0 00000+0 0 7332 2 26464 141.5726 268.6019 8889940 088.0884 352.3060 00.44227543 8798 MEGSAT 1 1 26546U 00057B 12034.29829183 +.00001165 +00000-0 +15125-3 0 04970 2 26546 064.5593 330.7864 0034707 311.3234 048.4887 14.85324671614850 HETE 2 1 26561U 00061A 12033.16292951 +.00002535 +00000-0 +14095-3 0 07244 2 26561 001.9479 317.0612 0022778 161.4261 198.6574 14.97859221619160 MUNIN 1 26621U 00075C 12034.90533325 .00000922 00000-0 83732-3 0 3026 2 26621 095.4213 311.4900 0717879 082.0214 286.1682 13.03839094533023 ODIN 1 26702U 01007A 12034.81075623 .00002329 00000-0 20491-3 0 5392 2 26702 097.6599 052.5498 0005079 116.7879 243.3819 14.97459204597249 TIMED 1 26998U 01055B 12034.88761114 +.00000322 +00000-0 +42158-4 0 01006 2 26998 074.0721 247.4727 0000889 132.0948 228.0297 14.84786180550201 HESSI 1 27370U 02004A 12034.95877528 +.00002962 +00000-0 +20978-3 0 07734 2 27370 038.0394 267.6019 0014724 233.7566 126.1836 15.05374232548498 USERS (SERVICE MODULE) (Decayed 2007-06-15) 1 27515U 02042A 07165.28398148 .02788115 -47478-5 58034-3 0 6437 2 27515 030.3988 006.1610 0004722 351.8108 358.0490 16.29812123266589 INTEGRAL 1 27540U 02048A 12035.20833333 +.00000547 +00000-0 +10000-3 0 01237 2 27540 070.5746 297.7008 8913820 249.9896 357.4716 00.33415941007516 FEDSAT 1 27598U 02056B 12034.98073521 +.00000048 +00000-0 +35518-4 0 05993 2 27598 098.2647 056.0653 0008150 277.4035 082.6223 14.28131339476517 WEOS 1 27599U 02056C 12035.13853663 .00000056 00000-0 38397-4 0 5891 2 27599 098.2729 064.4464 0009139 286.2460 073.7714 14.28725682476718 MICRO LABSAT 1 27600U 02056D 12034.96639281 -.00000001 +00000-0 +15848-4 0 05620 2 27600 098.2656 063.5874 0010154 289.4247 070.5838 14.28999893476799 CORIOLIS 1 27640U 03001A 12034.56425275 +.00000220 +00000-0 +12748-3 0 07895 2 27640 098.7562 042.9649 0014263 173.6274 186.5087 14.18484203469940 CHIPSAT 1 27643U 03002B 12034.62304544 .00001917 00000-0 15977-3 0 9568 2 27643 094.0184 084.1985 0009032 268.6540 091.3656 14.98917898494865 SORCE 1 27651U 03004A 12034.45007772 +.00000954 +00000-0 +12962-3 0 07135 2 27651 039.9972 048.4589 0026034 193.9295 166.0776 14.83282040488985 GALEX 1 27783U 03017A 12034.70139613 .00000426 00000-0 65401-4 0 4209 2 27783 028.9980 166.2352 0004103 186.3598 173.6992 14.60231344468416 MOST 1 27843U 03031D 12034.63843482 +.00000017 +00000-0 +28399-4 0 03109 2 27843 098.7180 043.6631 0009122 263.8256 096.1885 14.20218330445642 QUAKESAT 1 27845U 03031F 12034.96455762 +.00000283 +00000-0 +15176-3 0 03302 2 27845 098.7145 045.0428 0008244 272.2661 087.7572 14.20667141445707 AAU CUBESAT 1 27846U 03031G 12034.96622246 +.00000191 +00000-0 +10761-3 0 02049 2 27846 098.6961 045.8253 0008386 225.5405 134.5087 14.21235110445947 SCISAT 1 1 27858U 03036A 12034.83264413 +.00000289 +00000-0 +47845-4 0 05406 2 27858 073.9351 091.0904 0009640 283.2590 076.7532 14.75238090456498 KAISTSAT 4 1 27945U 03042G 12034.60768682 +.00000145 +00000-0 +36551-4 0 04796 2 27945 097.8211 243.0302 0012190 346.1869 013.9003 14.63426378446173 DOUBLESTAR (TC-1) (Decayed 2007-10-14) 1 28140U 03061A 07287.06978781 +.01244379 -22592-5 +10000-3 0 01751 2 28140 018.8616 210.3539 4780782 049.3666 343.3587 06.28920458006227 GP-B 1 28230U 04014A 12034.84988952 +.00000480 +00000-0 +66864-4 0 03481 2 28230 089.9204 150.1308 0002416 061.7651 298.3811 14.76463918419630 DEMETER 1 28368U 04025C 12035.55923739 .00000558 00000-0 97937-4 0 5805 2 28368 097.8824 091.7637 0002336 090.9971 269.1506 14.71331158407159 DOUBLESTAR (TC-2) 1 28382U 04029A 12034.74980610 +.00000010 +00000-0 +17491-3 0 00080 2 28382 088.7715 325.8530 7263395 112.2003 335.3383 02.15595157058114 SWIFT 1 28485U 04047A 12034.41164476 +.00002024 +00000-0 +14608-3 0 00806 2 28485 020.5570 072.3815 0013883 115.9979 244.1951 14.94321426393511 ASTRO E2 1 28773U 05025A 12034.91794613 +.00002168 +00000-0 +15179-3 0 06922 2 28773 031.4065 291.6163 0007143 296.1379 063.8533 15.03035930360868 ASTRO F (AKARI) 1 28939U 06005A 12034.96270045 +.00005749 +00000-0 +33282-3 0 08046 2 28939 098.2533 051.0615 0183893 359.1412 000.9467 14.99465488316541 FORMOSAT 3A 1 29047U 06011A 12034.81187200 +.00000378 +00000-0 +16865-3 0 07194 2 29047 071.9770 223.7220 0052872 288.8049 070.7327 14.27386720304920 FORMOSAT 3B 1 29048U 06011B 12034.75619449 +.00000392 +00000-0 +17471-3 0 08026 2 29048 071.9699 138.1615 0046677 242.6622 116.9732 14.27402772307392 FORMOSAT 3C 1 29049U 06011C 12034.76532754 +.00000363 +00000-0 +16364-3 0 07477 2 29049 072.0228 292.5861 0036805 294.1821 065.5439 14.27415804303171 FORMOSAT 3D 1 29050U 06011D 12034.91528510 +.00001124 +00000-0 +26646-3 0 00654 2 29050 072.0171 022.1077 0051800 110.1151 250.5555 14.55102238311068 FORMOSAT 3E 1 29051U 06011E 12034.86993328 +.00000375 +00000-0 +16522-3 0 08019 2 29051 072.0054 199.7479 0069708 167.7748 192.5092 14.27411982305772 FORMOSAT 3F 1 29052U 06011F 12034.76558929 +.00000362 +00000-0 +16273-3 0 08225 2 29052 072.0368 265.0835 0042657 262.8027 096.8241 14.27451649304062 CLOUDSAT 1 29107U 06016A 12034.85119323 +.00000296 +00000-0 +73260-4 0 08228 2 29107 098.2212 339.8880 0007622 161.3410 198.8074 14.58787894306947 CALIPSO 1 29108U 06016B 12035.39662908 .00000402 00000-0 99305-4 0 8464 2 29108 098.2199 340.0108 0000977 093.0200 267.1087 14.57069323306979 HINODE (SOLAR B) 1 29479U 06041A 12034.56395041 +.00000338 +00000-0 +74417-4 0 06948 2 29479 098.1094 036.2928 0014472 255.0824 104.8765 14.63412270286555 SJ-6C 1 29505U 06046A 12035.50909101 .00000811 00000-0 86855-4 0 9045 2 29505 097.7159 033.7529 0004260 108.5674 251.5965 14.91328416287462 SJ-6D 1 29506U 06046B 12034.93165647 +.00000459 +00000-0 +52558-4 0 08827 2 29506 097.7240 031.8473 0002538 149.4332 210.7045 14.90566464287240 COROT 1 29678U 06063A 12034.91600819 +.00000105 +00000-0 +66461-4 0 06935 2 29678 090.0067 010.1169 0006258 035.1007 325.0565 13.98247607260495 AIM 1 31304U 07015A 12035.31802634 .00002962 00000-0 27668-3 0 6035 2 31304 097.8245 144.0918 0009824 268.4498 091.5612 14.94906580260344 GLAST 1 33053U 08029A 12034.93108204 +.00000280 +00000-0 +00000-0 0 09798 2 33053 025.5838 339.1476 0012800 003.5337 356.5417 15.05992902200951 KORONAS-FOTON 1 33504U 09003A 12035.51106065 .00001063 00000-0 69095-4 0 3326 2 33504 082.4772 006.6527 0016920 043.5053 070.5506 15.06889302165514 TATIANA 2 1 35868U 09049D 12035.26107472 .00000064 00000-0 48644-4 0 1578 2 35868 098.6733 092.3499 0005084 070.1478 290.0247 14.22231825123592 UGATUSAT 1 35869U 09049E 12034.85289298 +.00000012 +00000-0 +24909-4 0 01199 2 35869 098.6709 091.5987 0005429 082.3263 277.8531 14.22052793123526 SUMBANDILA 1 35870U 09049F 12034.96397134 +.00003149 +00000-0 +13803-3 0 06494 2 35870 097.2519 075.4149 0000737 336.7165 064.5697 15.22701808132182 WISE 1 36119U 09071A 12034.95303032 +.00001777 +00000-0 +99193-4 0 06277 2 36119 097.5175 040.9660 0003263 356.5636 003.5574 15.14835360118166 SDO 1 36395U 10005A 12034.43755896 -.00000043 +00000-0 +00000-0 0 04352 2 36395 027.8469 176.5263 0001603 310.8675 061.3546 01.00270263007445 CRYOSAT 2 1 36508U 10013A 12034.68279115 +.00000003 +00000-0 +00000-0 0 05636 2 36508 092.0263 088.1572 0010391 159.4324 200.7301 14.52177298096665 PICARD 1 36598U 10028A 12035.50853069 .00000157 00000-0 52180-4 0 7800 2 36598 098.2867 222.4390 0001453 191.2085 168.9087 14.49580770 86754